Regional Weather Roundup
Issued by NWS Green Bay, WI

Home | Current Version | Previous Version | Text Only | Print | Product List | Glossary On
Versions: 1 2 3 4 5 6 7 8 9 10 11 12 13 14 15 16 17 18 19 20 21 22 23 24 25 26 27 28 29 30 31 32 33 34 35 36 37 38 39 40 41 42 43 44 45 46 47 48 49 50
000
ASUS43 KGRB 310700
RWRGRB

NORTH-CENTRAL AND NORTHEAST WISCONSIN REGIONAL WEATHER ROUNDUP
NATIONAL WEATHER SERVICE GREEN BAY WI
200 AM CDT FRI JUL 31 2015

WIZ005-009-010>012-018-019-310800-
NORTH CENTRAL WISCONSIN

CITY           SKY/WX    TMP DP  RH WIND       PRES   REMARKS
IRONWOOD       CLEAR     63  55  77 W9        29.87F
MANITOWISH WTR NOT AVBL
ARBOR VITAE    NOT AVBL
EAGLE RIVER    NOT AVBL
LAND O LAKES   NOT AVBL
RHINELANDER    CLEAR     60  55  83 W8        29.95F
PHILLIPS       NOT AVBL
ANTIGO         NOT AVBL
TOMAHAWK       NOT AVBL
MERRILL        NOT AVBL
$$

WIZ013-073-310800-
NORTHEAST WISCONSIN

CITY           SKY/WX    TMP DP  RH WIND       PRES   REMARKS
IRON MOUNTAIN  CLEAR     65  57  75 W7        29.88S
MARINETTE      CLEAR     64  55  72 W7        29.89S
$$

WIZ017-030-035>037-045-310800-
CENTRAL WISCONSIN

CITY           SKY/WX    TMP DP  RH WIND       PRES   REMARKS
MEDFORD        NOT AVBL
WAUSAU         CLEAR     67  57  70 NW10      29.95F
MOSINEE        NOT AVBL
MARSHFIELD     CLEAR     64  56  75 W6        29.99S
WISC RAPIDS    CLEAR     67  57  70 W8        29.99F
STEVENS POINT  NOT AVBL
WAUPACA        NOT AVBL
SHAWANO        NOT AVBL
CLINTONVILLE   NOT AVBL
$$

WIZ038-039-048-051-310800-
FOX VALLEY

CITY           SKY/WX    TMP DP  RH WIND       PRES   REMARKS
NWS GREEN BAY  CLEAR     66  57  72 SW5       29.93F
APPLETON       NOT AVBL
OSHKOSH        CLEAR     68  57  68 W3        29.96F
FOND DU LAC    CLEAR     68  57  68 W9        29.98S
$$

WIZ022-050-052-310800-
EAST CENTRAL WISCONSIN

CITY           SKY/WX    TMP DP  RH WIND       PRES   REMARKS
STURGEON BAY   CLEAR     70  57  64 W9        29.93S
MANITOWOC      NOT AVBL
SHEBOYGAN      CLEAR     65  58  78 W6        29.96F
$$

LMZ563-521-522-541>543-310800-
LAKESHORE

STATION/POSITION TIME  TEMP    WIND        PRES    VSBY  WAVE
                       AIR SEA DIR/SP/G                  HT/PER
                 (UTC) (F)     (DEG/KT/KT) (MB)    (MI)  (FT/S)
SHEBOYGAN LKSHOR 0600   71     250/  9/ 11 1014.6F
KEWAUNEE LKSHORE 0600   67     300/  4/  6 1012.8F
ALGOMA MARINA    0642          260/  4/  8   N/A
NORTHPORT PIER   0600   71     230/  6/ 11 1011.9S
N MID LAKE BUOY  0550   70 69  240/ 12/ 16 1010.8F         1/ 3
S GREEN BAY BUOY 0600   69 72  240/ 12/ 16 1014.3F
SISTER BAY LKSHO 0644   71     280/ 16/ 18   N/A
CHAMBERS ISLAND  0600   67     200/  5/ 10 1012.2S
MENOMINEE LKSHOR 0600   69     250/  8/ 12 1013.1F
$$



USA.gov is the U.S. government's official web portal to all federal, state and local government web resources and services.